Location: Liscomb Game Sanctuary
(45.1633°N, 62.5575°W)
Time: 06:21:41

USA 267 - Pass Details

Date: 22 February 2018
Orbit: 1098 x 1110 km, 123.0° (Epoch: 21 March)

Event Time Altitude Azimuth Distance (km) Brightness Sun altitude
Exits shadow 19:42:47 34° 80° (E) 1,725 3.8 -20.9°
Maximum altitude 19:45:19 52° 26° (NNE) 1,354 3.6 -21.4°
Drops below altitude 10° 19:51:36 10° 313° (NW) 2,961 6.3 -22.5°
Sets 19:54:08 0° 308° (NW) 3,919 7.1 -22.9°
